Wind_Speed
3 2 1 1 5 10 12 10 12 12 12 15 16 12 10 8 6 7 6 3 4 5 5 5 4 3 3 3 3 5 6 8 9 10 10 11 13 14 14 14 15 16 18 18
4 2 3 5 8 13 11 12 12 13 12 17 16 12 12 9 4 6 6 3 4 6 5 6 5 5 5 6 6 7 8 10 11 12 12 14 14 14 14 14 16 17 18 19
7 6 6 8 8 9 10 11 10 13 16 19 16 10 6 6 5 5 5 4 3 4 5 6 7 7 7 8 10 9 11 12 13 12 13 13 14 15 15 15 16 17 18 20
6 7 7 6 9 11 11 8 10 12 14 7 9 7 9 9 7 4 5 5 5 4 6 8 9 8 9 10 11 12 13 15 15 14 15 14 15 15 16 16 16 18 18 19
6 7 8 11 10 9 9 11 12 14 13 13 8 6 4 7 7 4 4 6 7 7 5 8 10 11 11 11 13 14 15 16 16 16 15 15 15 15 16 16 16 17 18 18
10 11 11 10 10 11 11 12 12 13 8 4 3 6 6 4 4 5 5 7 8 9 8 7 10 13 13 14 14 16 16 16 16 17 16 16 16 15 15 16 16 16 17 18
6 8 9 9 10 9 7 7 4 2 2 5 3 7 12 9 8 8 7 7 10 10 10 11 10 10 13 16 17 18 17 17 16 17 16 16 16 15 15 16 16 16 17 18
4 3 3 3 4 5 5 6 3 4 1 5 7 9 3 4 6 5 5 8 9 11 12 13 12 12 12 14 16 17 18 17 17 17 17 16 16 15 15 15 15 16 17 18
3 4 5 5 4 4 4 5 5 5 5 4 6 9 13 6 3 4 4 1 6 12 13 14 15 14 14 14 15 17 17 17 17 17 18 17 16 15 15 14 15 16 16 18
7 8 10 11 11 11 12 8 5 4 2 4 7 9 10 5 8 5 5 8 17 21 19 18 19 17 16 15 16 17 16 16 17 17 17 17 16 16 15 15 15 16 17 17
11 11 10 10 7 7 9 12 9 7 6 4 3 6 5 7 6 2 9 17 24 24 22 23 24 21 19 17 17 17 17 17 16 16 16 16 16 15 15 15 15 16 17 18
9 8 12 13 14 13 13 12 12 7 5 8 5 19 22 14 8 23 25 27 27 28 27 27 26 22 21 20 18 17 18 17 16 17 16 16 15 15 15 15 15 16 17 18
10 9 5 5 10 15 16 14 15 17 18 19 7 14 9 21 29 31 34 34 32 33 30 24 25 25 23 21 20 18 18 18 18 18 16 16 16 15 15 15 15 16 16 18
18 22 18 17 12 9 10 12 14 18 16 26 34 41 36 34 37 35 35 34 31 27 28 29 29 27 23 22 22 20 19 19 19 19 17 16 17 16 16 15 16 16 17 17
20 26 24 24 24 24 27 24 23 29 32 36 45 45 40 35 31 30 29 25 23 22 25 26 28 25 24 21 21 21 19 20 20 20 19 17 18 17 16 16 17 17 17 18
23 29 27 29 27 27 31 35 35 37 41 46 48 50 31 25 25 26 25 22 23 24 26 27 23 19 19 18 17 19 19 19 21 21 18 19 19 17 17 17 17 16 17 18
25 27 27 33 30 30 33 43 41 37 36 36 42 32 20 19 22 25 24 23 24 23 22 21 17 14 14 13 15 16 18 20 20 19 19 19 20 18 17 18 18 17 17 18
30 27 27 23 19 8 34 33 33 33 28 29 29 27 19 25 26 24 22 20 20 19 19 20 18 15 16 16 14 16 17 18 19 19 19 20 20 19 19 19 18 18 18 18
35 33 27 20 26 33 37 39 37 33 41 32 30 26 26 24 21 22 21 18 17 18 15 15 16 17 16 17 18 17 16 17 18 17 17 19 21 21 21 19 19 20 19 19
41 39 36 28 11 8 21 18 15 18 35 28 21 17 18 22 22 15 15 14 13 14 15 14 15 14 14 16 18 17 16 16 14 16 18 22 23 22 20 20 21 21 20 20
30 40 46 46 31 30 39 35 33 25 29 20 19 16 16 17 17 18 18 16 16 16 16 16 17 18 18 17 16 16 17 17 19 19 19 21 23 22 21 21 22 22 22 21
32 24 31 37 23 25 27 25 29 22 17 19 19 18 17 18 20 21 21 22 22 22 22 22 22 22 22 22 21 19 17 18 19 20 21 20 20 22 22 22 22 22 23 22
40 44 30 28 25 23 21 17 18 16 18 20 21 21 20 20 23 26 28 29 30 32 33 31 29 26 27 27 25 20 19 20 20 19 20 21 22 22 22 23 22 23 23 23
39 36 37 39 45 43 40 39 40 39 36 33 29 29 31 33 34 33 34 36 38 39 40 40 36 31 27 30 28 27 24 23 22 21 20 21 22 23 23 23 23 23 23 23
39 33 38 43 42 41 39 36 36 37 35 32 33 33 34 38 38 39 38 38 39 37 35 36 34 33 31 33 33 34 32 30 28 26 24 23 22 23 24 25 24 24 23 23
50 50 45 49 41 38 37 34 35 37 39 39 41 40 40 43 42 39 39 38 40 41 41 43 44 45 42 42 39 37 39 38 35 32 29 27 25 25 25 25 24 24 23 24
Wind_Direction
203 173 269 299 322 322 315 302 294 301 309 312 317 315 297 283 284 308 324 311 256 260 276 265 257 252 260 264 275 290 298 308 319 323 329 333 340 342 346 346 343 347 344 348
268 254 255 289 299 307 299 294 294 297 306 310 308 298 275 259 263 301 319 319 260 254 262 264 263 263 272 283 287 291 296 301 307 311 324 328 331 335 341 339 344 341 343 345
281 282 290 292 298 301 295 294 294 291 305 306 308 307 233 236 249 297 326 331 280 255 259 263 264 263 269 276 281 287 294 297 298 307 313 319 322 331 336 338 339 337 342 342
276 275 267 286 305 302 300 298 296 293 305 298 300 292 259 233 232 276 315 333 325 283 255 254 259 261 263 270 279 287 289 290 293 303 308 314 317 326 332 335 337 338 339 339
259 267 267 283 290 289 284 293 295 293 296 297 272 248 249 245 245 268 305 325 335 324 289 263 262 263 265 268 273 280 283 286 291 298 303 310 315 324 329 332 334 333 333 335
266 270 274 277 278 282 282 290 295 291 293 282 275 246 277 262 250 259 293 313 322 331 327 301 276 275 277 275 275 276 280 286 292 297 301 308 313 320 325 328 329 329 332 334
267 268 271 273 278 278 279 296 301 323 332 236 296 251 259 275 271 268 287 314 321 321 324 328 316 296 283 284 282 286 290 293 297 300 302 306 311 316 320 323 326 326 330 333
282 296 265 273 278 271 263 277 262 268 258 292 279 247 285 302 278 264 287 318 328 330 332 330 325 318 302 289 286 287 290 294 299 301 302 305 308 312 315 320 321 323 328 330
266 271 278 280 274 269 271 263 268 284 275 280 250 276 287 283 297 261 292 360 357 346 333 326 323 318 309 300 294 290 292 295 298 300 303 305 308 310 313 316 319 322 326 327
266 280 276 270 273 266 250 258 247 244 246 269 278 274 260 297 326 285 225 300 322 324 323 318 315 307 302 297 292 294 293 292 294 300 304 306 309 310 311 314 317 320 323 327
262 256 274 272 269 264 255 244 239 246 244 198 284 271 273 299 335 332 289 306 312 310 309 308 313 303 292 291 291 288 289 289 292 293 297 302 304 307 310 312 316 319 320 326
253 252 259 272 273 264 256 248 237 230 227 228 254 274 284 276 281 314 311 310 307 306 301 301 307 296 294 282 284 282 281 285 284 285 290 294 299 303 307 310 311 314 318 323
252 237 254 282 266 261 253 255 248 247 255 256 220 260 275 296 296 302 304 303 302 301 301 294 295 299 285 278 270 277 277 278 277 281 283 288 295 299 302 305 307 312 315 320
261 252 244 245 270 256 241 257 266 257 247 263 260 282 291 291 293 299 292 289 293 296 300 300 295 293 284 273 262 268 274 273 273 277 279 283 288 296 300 302 304 308 311 316
259 259 259 262 260 261 269 269 268 266 272 267 282 283 290 299 307 298 295 292 293 299 306 305 294 282 271 270 262 265 270 270 271 273 275 277 279 288 294 299 302 305 308 312
259 261 265 266 263 262 266 269 270 269 271 273 278 281 294 300 293 294 292 292 300 308 309 311 302 278 271 270 265 263 270 272 270 275 276 272 278 282 287 292 295 301 304 308
261 264 266 267 272 272 272 266 268 271 272 272 271 287 287 287 293 291 294 295 300 307 313 314 310 282 274 275 275 278 275 277 281 280 276 274 274 278 280 285 293 296 300 305
253 258 261 264 270 242 266 272 275 272 274 272 277 283 274 298 282 279 291 294 303 313 321 320 320 308 293 282 279 275 280 281 284 282 277 275 274 273 275 281 287 291 296 301
249 254 246 243 250 266 267 274 267 273 280 274 272 276 278 281 284 285 286 292 299 306 315 321 326 322 312 299 290 285 281 281 283 286 276 270 270 270 272 279 280 285 293 296
241 244 245 244 243 247 276 278 276 264 280 291 281 278 267 275 279 277 280 287 293 301 313 319 312 308 311 311 306 302 292 285 287 274 266 264 268 272 273 272 276 281 288 290
233 232 233 239 243 261 267 270 269 271 277 288 293 285 276 279 274 275 277 280 288 296 301 313 316 309 300 300 303 307 303 294 283 283 279 276 274 275 273 272 275 278 282 286
242 233 231 230 238 261 277 262 248 280 276 286 287 283 283 279 275 267 272 284 296 298 303 307 308 307 306 304 300 299 297 294 297 295 292 288 283 278 277 276 274 276 279 283
241 237 239 232 249 262 269 263 276 273 276 285 289 284 272 267 272 275 280 284 291 296 298 300 301 297 294 292 292 294 295 297 295 299 298 291 286 282 280 277 277 276 277 281
249 251 246 250 255 259 263 270 274 279 280 279 274 273 273 280 282 283 284 287 289 291 294 295 293 288 284 283 282 283 286 288 291 296 297 291 289 287 284 281 279 278 279 279
259 258 255 256 260 262 263 269 274 274 276 277 280 279 280 282 284 284 285 285 289 289 288 286 286 284 280 275 273 276 279 281 285 289 293 295 289 285 283 282 279 278 278 278
258 255 251 260 270 270 276 273 272 273 275 274 274 276 278 280 281 281 282 283 285 286 284 282 281 280 278 277 273 272 273 275 276 280 281 285 287 283 282 281 280 278 276 277
Height
3192 3193 3192 3191 3190 3189 3188 3186 3184 3182 3181 3178 3175 3173 3172 3171 3171 3170 3169 3167 3167 3167 3167 3167 3166 3166 3166 3165 3164 3164 3162 3160 3158 3157 3155 3154 3152 3150 3148 3145 3144 3139 3136 3132
3192 3190 3190 3189 3188 3187 3186 3185 3184 3182 3179 3177 3173 3170 3169 3168 3168 3167 3166 3165 3165 3165 3166 3165 3164 3164 3164 3163 3162 3161 3160 3158 3157 3155 3153 3152 3150 3149 3146 3144 3141 3137 3135 3130
3191 3191 3190 3189 3188 3186 3185 3183 3182 3181 3178 3175 3171 3165 3165 3166 3165 3164 3163 3163 3162 3163 3163 3163 3162 3162 3161 3161 3160 3158 3157 3156 3154 3153 3151 3149 3148 3146 3144 3142 3139 3136 3132 3128
3189 3188 3189 3189 3188 3187 3185 3183 3181 3179 3178 3175 3173 3168 3163 3163 3163 3162 3161 3160 3160 3160 3160 3160 3159 3159 3158 3157 3156 3155 3154 3153 3152 3150 3148 3147 3146 3144 3142 3140 3137 3133 3130 3126
3188 3187 3186 3186 3186 3184 3184 3182 3180 3177 3176 3174 3170 3170 3160 3160 3161 3161 3160 3159 3158 3158 3157 3157 3157 3156 3155 3154 3153 3152 3151 3150 3148 3147 3146 3144 3143 3141 3139 3137 3134 3131 3128 3125
3185 3185 3185 3184 3184 3183 3181 3180 3178 3177 3175 3173 3171 3171 3160 3159 3159 3159 3159 3158 3157 3156 3155 3155 3154 3153 3152 3151 3149 3148 3148 3147 3146 3144 3143 3141 3140 3138 3137 3135 3132 3129 3126 3122
3183 3182 3182 3181 3181 3180 3180 3180 3177 3176 3176 3173 3169 3169 3159 3158 3158 3158 3157 3156 3156 3155 3154 3153 3151 3150 3150 3149 3147 3146 3145 3144 3143 3142 3140 3139 3137 3136 3133 3131 3129 3126 3123 3119
3183 3182 3181 3180 3180 3180 3179 3179 3179 3177 3177 3171 3169 3162 3157 3157 3156 3156 3156 3155 3154 3154 3152 3150 3149 3148 3146 3145 3144 3143 3142 3141 3139 3138 3136 3135 3134 3132 3130 3128 3126 3123 3120 3116
3183 3181 3180 3179 3179 3180 3178 3178 3179 3178 3175 3173 3163 3158 3156 3154 3154 3154 3154 3153 3153 3151 3149 3148 3146 3144 3143 3141 3140 3139 3138 3137 3136 3135 3134 3132 3131 3129 3127 3125 3122 3119 3116 3113
3181 3180 3178 3177 3177 3177 3177 3177 3176 3177 3176 3173 3159 3155 3152 3154 3153 3152 3152 3151 3150 3148 3147 3145 3143 3141 3139 3138 3136 3134 3133 3133 3132 3132 3130 3129 3127 3125 3123 3121 3119 3116 3113 3110
3178 3179 3177 3175 3174 3173 3174 3173 3174 3174 3173 3171 3168 3152 3151 3151 3151 3151 3151 3149 3147 3145 3142 3141 3138 3136 3135 3133 3131 3130 3129 3128 3127 3126 3125 3124 3123 3121 3119 3117 3115 3112 3110 3106
3176 3175 3173 3173 3172 3170 3170 3169 3170 3171 3169 3166 3164 3149 3151 3149 3149 3148 3146 3144 3141 3139 3137 3135 3132 3130 3129 3128 3127 3125 3124 3123 3122 3121 3121 3120 3118 3117 3115 3113 3111 3108 3106 3103
3172 3170 3171 3170 3170 3167 3166 3166 3165 3164 3164 3160 3162 3147 3148 3148 3146 3143 3141 3137 3135 3132 3130 3128 3126 3124 3122 3121 3121 3120 3119 3118 3117 3116 3116 3115 3113 3112 3110 3108 3106 3104 3102 3099
3169 3167 3166 3165 3164 3163 3162 3161 3162 3161 3157 3152 3144 3140 3143 3142 3141 3138 3133 3130 3128 3126 3124 3122 3119 3118 3115 3114 3114 3114 3114 3113 3111 3111 3110 3109 3108 3107 3106 3104 3102 3100 3097 3095
3164 3160 3161 3160 3160 3159 3156 3154 3154 3151 3149 3145 3136 3134 3134 3134 3132 3128 3125 3123 3122 3120 3118 3114 3111 3109 3108 3107 3107 3108 3108 3107 3106 3105 3105 3104 3102 3101 3100 3099 3097 3095 3093 3090
3157 3154 3154 3153 3154 3153 3149 3145 3144 3141 3138 3133 3130 3123 3128 3128 3125 3122 3120 3117 3116 3115 3112 3108 3103 3101 3101 3101 3101 3102 3102 3101 3100 3099 3099 3098 3097 3096 3095 3094 3092 3090 3088 3085
3153 3151 3151 3145 3148 3146 3139 3131 3132 3131 3128 3125 3120 3118 3120 3119 3118 3117 3115 3114 3111 3109 3107 3103 3100 3098 3096 3095 3096 3097 3096 3095 3094 3094 3093 3092 3091 3090 3089 3088 3087 3085 3083 3081
3143 3145 3146 3142 3144 3135 3125 3123 3123 3120 3117 3116 3114 3112 3113 3113 3111 3110 3110 3109 3107 3105 3102 3100 3098 3096 3094 3093 3091 3090 3090 3089 3089 3088 3088 3087 3085 3084 3084 3082 3081 3080 3078 3076
3137 3138 3137 3136 3133 3121 3122 3120 3116 3113 3104 3109 3108 3108 3108 3106 3105 3105 3104 3103 3102 3100 3098 3096 3095 3093 3092 3090 3088 3086 3084 3083 3082 3082 3082 3080 3079 3078 3077 3076 3075 3073 3072 3070
3125 3128 3131 3129 3125 3116 3111 3111 3110 3107 3097 3103 3101 3101 3102 3102 3100 3099 3099 3098 3097 3096 3095 3093 3091 3088 3087 3086 3085 3083 3081 3078 3077 3075 3074 3073 3072 3071 3070 3070 3068 3067 3066 3064
3117 3117 3116 3116 3114 3101 3103 3107 3106 3105 3098 3098 3098 3097 3097 3097 3097 3096 3094 3094 3093 3091 3090 3089 3088 3086 3083 3081 3079 3078 3077 3074 3071 3069 3067 3066 3065 3065 3064 3063 3062 3061 3059 3058
3106 3108 3105 3109 3110 3097 3093 3095 3096 3095 3092 3092 3092 3093 3092 3092 3092 3092 3091 3090 3088 3087 3085 3084 3083 3082 3079 3077 3076 3074 3071 3068 3067 3065 3063 3061 3059 3058 3057 3056 3055 3054 3052 3051
3094 3091 3094 3095 3088 3090 3088 3087 3086 3088 3088 3088 3087 3087 3087 3086 3086 3085 3085 3084 3083 3080 3078 3077 3076 3076 3073 3071 3070 3068 3065 3063 3061 3059 3057 3056 3053 3051 3050 3049 3048 3047 3045 3044
3078 3081 3081 3085 3079 3082 3083 3082 3081 3081 3080 3080 3080 3079 3079 3080 3078 3078 3078 3076 3075 3072 3070 3068 3067 3066 3067 3063 3062 3061 3059 3057 3054 3053 3051 3049 3047 3046 3044 3042 3041 3040 3039 3037
3069 3072 3069 3067 3069 3072 3073 3074 3073 3072 3072 3071 3070 3070 3070 3069 3070 3068 3068 3066 3064 3063 3061 3058 3057 3055 3055 3053 3054 3052 3050 3048 3047 3046 3045 3043 3040 3038 3037 3036 3034 3033 3032 3030
3053 3055 3058 3053 3059 3060 3062 3065 3065 3063 3061 3061 3060 3058 3058 3058 3058 3058 3057 3056 3055 3054 3052 3049 3046 3043 3043 3042 3042 3042 3040 3038 3037 3037 3037 3035 3033 3031 3030 3028 3027 3026 3024 3023